Time,TemperatureF,DewpointF,PressureIn,WindDirection,WindDirectionDegrees,WindSpeedMPH,WindSpeedGustMPH,Humidity,HourlyPrecipIn,Conditions,Clouds,dailyrainin,SoftwareType,DateUTC
2013-04-17 00:00:00,27.0,18.2,30.36,NNE,22,0.0,0.0,69,0.00,,,0.00,WUHU21623XXSP,2013-04-17 07:00:00,
2013-04-17 00:05:00,27.0,18.8,30.36,NNE,22,0.0,0.0,71,0.00,,,0.00,WUHU21623XXSP,2013-04-17 07:05:00,
2013-04-17 00:10:00,26.8,18.3,30.36,NNE,22,0.0,0.0,70,0.00,,,0.00,WUHU21623XXSP,2013-04-17 07:10:00,
2013-04-17 00:15:00,26.6,17.8,30.36,NNE,22,0.0,0.0,69,0.00,,,0.00,WUHU21623XXSP,2013-04-17 07:15:00,
2013-04-17 00:20:00,26.4,17.9,30.36,NNE,22,0.0,0.0,70,0.00,,,0.00,WUHU21623XXSP,2013-04-17 07:20:00,
2013-04-17 00:25:00,26.4,17.9,30.37,NNE,22,0.0,0.0,70,0.00,,,0.00,WUHU21623XXSP,2013-04-17 07:25:00,
2013-04-17 00:30:00,26.2,18.1,30.37,NNE,22,0.0,0.0,71,0.00,,,0.00,WUHU21623XXSP,2013-04-17 07:30:00,
2013-04-17 00:35:00,26.2,17.7,30.37,NNE,22,0.0,0.0,70,0.00,,,0.00,WUHU21623XXSP,2013-04-17 07:35:00,
2013-04-17 00:40:00,26.1,17.3,30.37,NNE,22,0.0,0.0,69,0.00,,,0.00,WUHU21623XXSP,2013-04-17 07:40:00,
2013-04-17 00:45:00,26.1,17.6,30.37,NNE,22,0.0,0.0,70,0.00,,,0.00,WUHU21623XXSP,2013-04-17 07:45:00,
2013-04-17 00:50:00,26.2,18.7,30.37,NNE,22,0.0,0.0,73,0.00,,,0.00,WUHU21623XXSP,2013-04-17 07:50:00,
2013-04-17 00:55:00,26.2,18.7,30.37,NNE,22,0.0,0.0,73,0.00,,,0.00,WUHU21623XXSP,2013-04-17 07:55:00,
2013-04-17 01:00:00,26.1,18.3,30.37,NNE,22,0.0,0.0,72,0.00,,,0.00,WUHU21623XXSP,2013-04-17 08:00:00,
2013-04-17 01:05:00,26.1,18.3,30.37,NNE,22,0.0,0.0,72,0.00,,,0.00,WUHU21623XXSP,2013-04-17 08:05:00,
2013-04-17 01:10:00,26.1,18.0,30.37,NNE,22,0.0,0.0,71,0.00,,,0.00,WUHU21623XXSP,2013-04-17 08:10:00,
2013-04-17 01:15:00,25.7,17.6,30.37,NNE,22,0.0,0.0,71,0.00,,,0.00,WUHU21623XXSP,2013-04-17 08:15:00,
2013-04-17 01:20:00,26.2,18.1,30.37,NNE,22,0.0,0.0,71,0.00,,,0.00,WUHU21623XXSP,2013-04-17 08:20:00,
2013-04-17 01:25:00,26.2,17.7,30.37,NNE,22,0.0,0.0,70,0.00,,,0.00,WUHU21623XXSP,2013-04-17 08:25:00,
2013-04-17 01:30:00,26.2,17.7,30.37,NNE,22,0.0,0.0,70,0.00,,,0.00,WUHU21623XXSP,2013-04-17 08:30:00,
2013-04-17 01:35:00,25.9,17.1,30.37,NNE,22,0.0,0.0,69,0.00,,,0.00,WUHU21623XXSP,2013-04-17 08:35:00,
2013-04-17 01:40:00,26.2,17.4,30.37,NNE,22,0.0,0.0,69,0.00,,,0.00,WUHU21623XXSP,2013-04-17 08:40:00,
2013-04-17 01:45:00,27.1,18.3,30.37,NNE,22,0.0,0.0,69,0.00,,,0.00,WUHU21623XXSP,2013-04-17 08:45:00,
2013-04-17 01:50:00,27.7,18.5,30.38,NNE,22,0.0,0.0,68,0.00,,,0.00,WUHU21623XXSP,2013-04-17 08:50:00,
2013-04-17 01:55:00,28.2,18.6,30.38,NNE,22,0.0,0.0,67,0.00,,,0.00,WUHU21623XXSP,2013-04-17 08:55:00,
2013-04-17 02:00:00,28.9,19.0,30.37,NNE,22,0.0,0.0,66,0.00,,,0.00,WUHU21623XXSP,2013-04-17 09:00:00,
2013-04-17 02:05:00,28.8,18.9,30.37,NNE,22,0.0,0.0,66,0.00,,,0.00,WUHU21623XXSP,2013-04-17 09:05:00,
2013-04-17 02:10:00,28.2,17.9,30.37,NNE,22,0.0,0.0,65,0.00,,,0.00,WUHU21623XXSP,2013-04-17 09:10:00,
2013-04-17 02:15:00,28.8,18.9,30.37,NNE,22,0.7,0.7,66,0.00,,,0.00,WUHU21623XXSP,2013-04-17 09:15:00,
2013-04-17 02:20:00,29.3,19.0,30.37,NNE,22,0.0,0.7,65,0.00,,,0.00,WUHU21623XXSP,2013-04-17 09:20:00,
2013-04-17 02:25:00,29.5,18.8,30.37,NNE,22,0.0,0.0,64,0.00,,,0.00,WUHU21623XXSP,2013-04-17 09:25:00,
2013-04-17 02:30:00,29.8,19.1,30.37,NNE,22,0.0,0.0,64,0.00,,,0.00,WUHU21623XXSP,2013-04-17 09:30:00,
2013-04-17 02:35:00,29.1,18.1,30.37,NNE,22,0.0,0.0,63,0.00,,,0.00,WUHU21623XXSP,2013-04-17 09:35:00,
2013-04-17 02:40:00,28.9,17.9,30.37,NNE,22,0.0,0.0,63,0.00,,,0.00,WUHU21623XXSP,2013-04-17 09:40:00,
2013-04-17 02:45:00,29.1,18.1,30.37,NNE,22,0.0,0.0,63,0.00,,,0.00,WUHU21623XXSP,2013-04-17 09:45:00,
2013-04-17 02:50:00,29.3,18.2,30.37,NNE,22,0.0,0.0,63,0.00,,,0.00,WUHU21623XXSP,2013-04-17 09:50:00,
2013-04-17 02:55:00,28.9,17.9,30.37,NNE,22,0.0,0.0,63,0.00,,,0.00,WUHU21623XXSP,2013-04-17 09:55:00,
2013-04-17 03:00:00,27.7,16.7,30.37,NNE,22,0.0,0.0,63,0.00,,,0.00,WUHU21623XXSP,2013-04-17 10:00:00,
2013-04-17 03:05:00,26.8,15.9,30.37,NNE,22,0.0,0.0,63,0.00,,,0.00,WUHU21623XXSP,2013-04-17 10:05:00,
2013-04-17 03:10:00,26.1,15.2,30.37,NNE,22,0.0,0.0,63,0.00,,,0.00,WUHU21623XXSP,2013-04-17 10:10:00,
2013-04-17 03:15:00,25.0,14.9,30.37,NNE,22,0.0,0.0,65,0.00,,,0.00,WUHU21623XXSP,2013-04-17 10:15:00,
2013-04-17 03:20:00,24.6,14.8,30.37,NNE,22,0.0,0.0,66,0.00,,,0.00,WUHU21623XXSP,2013-04-17 10:20:00,
2013-04-17 03:25:00,24.6,15.2,30.37,NNE,22,0.0,0.0,67,0.00,,,0.00,WUHU21623XXSP,2013-04-17 10:25:00,
2013-04-17 03:30:00,24.4,15.0,30.37,NNE,22,0.0,0.0,67,0.00,,,0.00,WUHU21623XXSP,2013-04-17 10:30:00,
2013-04-17 03:35:00,23.5,14.1,30.37,NNE,22,0.0,0.0,67,0.00,,,0.00,WUHU21623XXSP,2013-04-17 10:35:00,
2013-04-17 03:40:00,23.2,14.2,30.37,NNE,22,0.0,0.0,68,0.00,,,0.00,WUHU21623XXSP,2013-04-17 10:40:00,
2013-04-17 03:45:00,22.8,14.1,30.38,NNE,22,0.0,0.0,69,0.00,,,0.00,WUHU21623XXSP,2013-04-17 10:45:00,
2013-04-17 03:50:00,22.6,13.9,30.38,NNE,22,0.0,0.0,69,0.00,,,0.00,WUHU21623XXSP,2013-04-17 10:50:00,
2013-04-17 03:55:00,22.3,13.7,30.38,NNE,22,0.0,0.0,69,0.00,,,0.00,WUHU21623XXSP,2013-04-17 10:55:00,
2013-04-17 04:00:00,22.5,14.2,30.38,NNE,22,0.0,0.0,70,0.00,,,0.00,WUHU21623XXSP,2013-04-17 11:00:00,
2013-04-17 04:05:00,22.5,14.2,30.38,NNE,22,0.0,0.0,70,0.00,,,0.00,WUHU21623XXSP,2013-04-17 11:05:00,
2013-04-17 04:10:00,22.3,14.0,30.38,NNE,22,0.0,0.0,70,0.00,,,0.00,WUHU21623XXSP,2013-04-17 11:10:00,
2013-04-17 04:15:00,22.3,14.0,30.38,NNE,22,0.0,0.0,70,0.00,,,0.00,WUHU21623XXSP,2013-04-17 11:15:00,
2013-04-17 04:20:00,22.1,13.8,30.38,NNE,22,0.0,0.0,70,0.00,,,0.00,WUHU21623XXSP,2013-04-17 11:20:00,
2013-04-17 04:25:00,22.1,14.1,30.38,NNE,22,0.0,0.0,71,0.00,,,0.00,WUHU21623XXSP,2013-04-17 11:25:00,
2013-04-17 04:30:00,22.3,14.6,30.38,NNE,22,0.0,0.0,72,0.00,,,0.00,WUHU21623XXSP,2013-04-17 11:30:00,
2013-04-17 04:35:00,22.6,15.2,30.38,NNE,22,0.0,0.0,73,0.00,,,0.00,WUHU21623XXSP,2013-04-17 11:35:00,
2013-04-17 04:40:00,22.8,16.0,30.39,NNE,22,0.0,0.0,75,0.00,,,0.00,WUHU21623XXSP,2013-04-17 11:40:00,
2013-04-17 04:45:00,22.8,16.0,30.39,NNE,22,0.0,0.0,75,0.00,,,0.00,WUHU21623XXSP,2013-04-17 11:45:00,
2013-04-17 04:50:00,22.8,16.0,30.39,NNE,22,0.0,0.0,75,0.00,,,0.00,WUHU21623XXSP,2013-04-17 11:50:00,
2013-04-17 04:55:00,22.8,16.0,30.39,NNE,22,0.0,0.0,75,0.00,,,0.00,WUHU21623XXSP,2013-04-17 11:55:00,
2013-04-17 05:00:00,23.4,16.3,30.39,NNE,22,0.0,0.0,74,0.00,,,0.00,WUHU21623XXSP,2013-04-17 12:00:00,
2013-04-17 05:05:00,23.2,15.8,30.39,NNE,22,0.0,0.0,73,0.00,,,0.00,WUHU21623XXSP,2013-04-17 12:05:00,
2013-04-17 05:10:00,22.5,15.1,30.39,NNE,22,0.0,0.0,73,0.00,,,0.00,WUHU21623XXSP,2013-04-17 12:10:00,
2013-04-17 05:15:00,22.3,14.9,30.39,North,0,0.0,0.0,73,0.00,,,0.00,WUHU21623XXSP,2013-04-17 12:15:00,
2013-04-17 05:20:00,22.3,14.9,30.39,North,0,0.0,0.0,73,0.00,,,0.00,WUHU21623XXSP,2013-04-17 12:20:00,
2013-04-17 05:25:00,22.3,14.9,30.39,North,0,0.0,0.0,73,0.00,,,0.00,WUHU21623XXSP,2013-04-17 12:25:00,
2013-04-17 05:30:00,22.3,14.9,30.39,North,0,0.0,0.0,73,0.00,,,0.00,WUHU21623XXSP,2013-04-17 12:30:00,
2013-04-17 05:35:00,21.9,14.5,30.39,North,0,0.0,0.0,73,0.00,,,0.00,WUHU21623XXSP,2013-04-17 12:35:00,
2013-04-17 05:40:00,21.9,14.5,30.39,North,0,0.0,0.0,73,0.00,,,0.00,WUHU21623XXSP,2013-04-17 12:40:00,
2013-04-17 05:45:00,21.6,14.3,30.39,North,0,0.0,0.0,73,0.00,,,0.00,WUHU21623XXSP,2013-04-17 12:45:00,
2013-04-17 05:50:00,21.4,14.1,30.39,North,0,0.0,0.0,73,0.00,,,0.00,WUHU21623XXSP,2013-04-17 12:50:00,
2013-04-17 05:55:00,21.4,14.1,30.39,North,0,0.0,0.0,73,0.00,,,0.00,WUHU21623XXSP,2013-04-17 12:55:00,
2013-04-17 06:00:00,20.8,13.8,30.39,North,0,0.0,0.0,74,0.00,,,0.00,WUHU21623XXSP,2013-04-17 13:00:00,
2013-04-17 06:05:00,21.0,14.0,30.40,North,0,0.0,0.0,74,0.00,,,0.00,WUHU21623XXSP,2013-04-17 13:05:00,
2013-04-17 06:10:00,21.0,14.0,30.40,North,0,0.0,0.0,74,0.00,,,0.00,WUHU21623XXSP,2013-04-17 13:10:00,
2013-04-17 06:15:00,21.0,14.0,30.40,North,0,0.0,0.0,74,0.00,,,0.00,WUHU21623XXSP,2013-04-17 13:15:00,
2013-04-17 06:20:00,21.9,15.5,30.40,North,0,0.0,0.0,76,0.00,,,0.00,WUHU21623XXSP,2013-04-17 13:20:00,
2013-04-17 06:25:00,23.7,17.5,30.40,North,0,0.0,0.0,77,0.00,,,0.00,WUHU21623XXSP,2013-04-17 13:25:00,
2013-04-17 06:30:00,27.7,21.1,30.40,North,0,0.0,0.0,76,0.00,,,0.00,WUHU21623XXSP,2013-04-17 13:30:00,
2013-04-17 06:35:00,30.6,23.3,30.40,North,0,0.0,0.0,74,0.00,,,0.00,WUHU21623XXSP,2013-04-17 13:35:00,
2013-04-17 06:40:00,33.6,25.2,30.40,North,0,0.0,0.0,71,0.00,,,0.00,WUHU21623XXSP,2013-04-17 13:40:00,
2013-04-17 06:45:00,38.5,28.9,30.40,North,0,0.0,0.0,68,0.00,,,0.00,WUHU21623XXSP,2013-04-17 13:45:00,
2013-04-17 06:50:00,41.5,30.2,30.40,North,0,0.0,0.0,64,0.00,,,0.00,WUHU21623XXSP,2013-04-17 13:50:00,
2013-04-17 06:55:00,44.4,31.8,30.40,North,0,0.0,0.0,61,0.00,,,0.00,WUHU21623XXSP,2013-04-17 13:55:00,
2013-04-17 07:00:00,47.8,33.7,30.41,North,0,0.0,0.0,58,0.00,,,0.00,WUHU21623XXSP,2013-04-17 14:00:00,
2013-04-17 07:05:00,49.8,34.2,30.41,North,0,0.0,0.0,55,0.00,,,0.00,WUHU21623XXSP,2013-04-17 14:05:00,
2013-04-17 07:10:00,51.6,35.4,30.41,North,0,0.0,0.0,54,0.00,,,0.00,WUHU21623XXSP,2013-04-17 14:10:00,
2013-04-17 07:15:00,53.1,35.8,30.41,North,0,0.0,0.0,52,0.00,,,0.00,WUHU21623XXSP,2013-04-17 14:15:00,
2013-04-17 07:20:00,54.3,36.5,30.41,North,0,0.0,0.0,51,0.00,,,0.00,WUHU21623XXSP,2013-04-17 14:20:00,
2013-04-17 07:25:00,56.3,37.8,30.41,North,0,0.0,0.0,50,0.00,,,0.00,WUHU21623XXSP,2013-04-17 14:25:00,
2013-04-17 07:30:00,58.6,38.3,30.41,North,0,0.0,0.0,47,0.00,,,0.00,WUHU21623XXSP,2013-04-17 14:30:00,
2013-04-17 07:35:00,59.9,38.3,30.41,North,0,0.0,0.0,45,0.00,,,0.00,WUHU21623XXSP,2013-04-17 14:35:00,
2013-04-17 07:40:00,60.3,37.5,30.41,NNE,22,0.0,0.0,43,0.00,,,0.00,WUHU21623XXSP,2013-04-17 14:40:00,
2013-04-17 07:45:00,56.8,33.7,30.41,ENE,67,0.0,0.0,42,0.00,,,0.00,WUHU21623XXSP,2013-04-17 14:45:00,
2013-04-17 07:50:00,55.2,32.2,30.41,ENE,67,0.0,0.0,42,0.00,,,0.00,WUHU21623XXSP,2013-04-17 14:50:00,
2013-04-17 07:55:00,54.5,31.6,30.41,ENE,67,0.0,0.0,42,0.00,,,0.00,WUHU21623XXSP,2013-04-17 14:55:00,
2013-04-17 08:00:00,53.4,30.6,30.41,ENE,67,0.0,0.0,42,0.00,,,0.00,WUHU21623XXSP,2013-04-17 15:00:00,
2013-04-17 08:05:00,52.7,30.0,30.41,ENE,67,0.0,0.0,42,0.00,,,0.00,WUHU21623XXSP,2013-04-17 15:05:00,
2013-04-17 08:10:00,50.7,28.2,30.41,ENE,67,0.0,0.0,42,0.00,,,0.00,WUHU21623XXSP,2013-04-17 15:10:00,
2013-04-17 08:15:00,49.8,28.5,30.41,ENE,67,0.0,0.0,44,0.00,,,0.00,WUHU21623XXSP,2013-04-17 15:15:00,
2013-04-17 08:20:00,50.2,28.3,30.42,ESE,112,0.0,0.0,43,0.00,,,0.00,WUHU21623XXSP,2013-04-17 15:20:00,
2013-04-17 08:25:00,50.5,29.2,30.42,ENE,67,0.0,0.0,44,0.00,,,0.00,WUHU21623XXSP,2013-04-17 15:25:00,
2013-04-17 08:30:00,52.5,29.8,30.42,ENE,67,0.0,0.0,42,0.00,,,0.00,WUHU21623XXSP,2013-04-17 15:30:00,
2013-04-17 08:35:00,53.4,30.6,30.42,ENE,67,0.0,0.0,42,0.00,,,0.00,WUHU21623XXSP,2013-04-17 15:35:00,
2013-04-17 08:40:00,53.6,30.2,30.42,ENE,67,0.0,0.0,41,0.00,,,0.00,WUHU21623XXSP,2013-04-17 15:40:00,
2013-04-17 08:45:00,54.9,30.7,30.42,ENE,67,0.0,0.0,40,0.00,,,0.00,WUHU21623XXSP,2013-04-17 15:45:00,
2013-04-17 08:50:00,55.2,30.4,30.42,NE,45,0.0,0.0,39,0.00,,,0.00,WUHU21623XXSP,2013-04-17 15:50:00,
2013-04-17 08:55:00,55.6,30.7,30.42,NE,45,0.0,0.0,39,0.00,,,0.00,WUHU21623XXSP,2013-04-17 15:55:00,
2013-04-17 09:00:00,55.6,30.7,30.42,SE,135,0.0,0.0,39,0.00,,,0.00,WUHU21623XXSP,2013-04-17 16:00:00,
2013-04-17 09:05:00,52.7,28.1,30.42,SE,135,0.0,0.0,39,0.00,,,0.00,WUHU21623XXSP,2013-04-17 16:05:00,
2013-04-17 09:10:00,52.9,28.9,30.42,ENE,67,0.0,0.0,40,0.00,,,0.00,WUHU21623XXSP,2013-04-17 16:10:00,
2013-04-17 09:15:00,55.2,30.4,30.42,NNE,22,0.0,0.0,39,0.00,,,0.00,WUHU21623XXSP,2013-04-17 16:15:00,
2013-04-17 09:20:00,56.1,31.2,30.42,NNE,22,0.0,0.0,39,0.00,,,0.00,WUHU21623XXSP,2013-04-17 16:20:00,
2013-04-17 09:21:00,55.9,31.0,30.42,NNE,22,0.0,0.0,39,0.00,,,0.00,WUHU21623XXSP,2013-04-17 16:21:00,
2013-04-17 09:25:00,56.5,30.9,30.42,SSE,157,1.1,1.1,38,0.00,,,0.00,WUHU21623XXSP,2013-04-17 16:25:00,
2013-04-17 09:30:00,56.5,31.5,30.42,South,180,0.0,3.4,39,0.00,,,0.00,WUHU21623XXSP,2013-04-17 16:30:00,
2013-04-17 09:35:00,58.1,33.0,30.42,South,180,0.0,3.4,39,0.00,,,0.00,WUHU21623XXSP,2013-04-17 16:35:00,
2013-04-17 09:40:00,59.4,32.1,30.42,NW,315,0.0,0.0,36,0.00,,,0.00,WUHU21623XXSP,2013-04-17 16:40:00,
2013-04-17 09:45:00,57.9,31.4,30.42,South,180,0.0,0.0,37,0.00,,,0.00,WUHU21623XXSP,2013-04-17 16:45:00,
2013-04-17 09:50:00,58.5,32.6,30.42,South,180,0.0,0.0,38,0.00,,,0.00,WUHU21623XXSP,2013-04-17 16:50:00,
2013-04-17 09:55:00,59.4,33.5,30.42,SW,225,0.0,0.0,38,0.00,,,0.00,WUHU21623XXSP,2013-04-17 16:55:00,
2013-04-17 10:00:00,61.0,34.2,30.42,WSW,247,0.0,0.0,37,0.00,,,0.00,WUHU21623XXSP,2013-04-17 17:00:00,
2013-04-17 10:05:00,61.3,34.5,30.42,SW,225,0.0,0.0,37,0.00,,,0.00,WUHU21623XXSP,2013-04-17 17:05:00,
2013-04-17 10:10:00,61.3,33.8,30.42,WSW,247,0.0,6.3,36,0.00,,,0.00,WUHU21623XXSP,2013-04-17 17:10:00,
2013-04-17 10:15:00,59.5,31.5,30.42,South,180,3.8,6.3,35,0.00,,,0.00,WUHU21623XXSP,2013-04-17 17:15:00,
2013-04-17 10:20:00,57.4,30.3,30.42,SSW,202,8.1,8.1,36,0.00,,,0.00,WUHU21623XXSP,2013-04-17 17:20:00,
2013-04-17 10:25:00,56.8,30.5,30.42,SSE,157,0.0,8.1,37,0.00,,,0.00,WUHU21623XXSP,2013-04-17 17:25:00,
2013-04-17 10:30:00,54.5,27.7,30.41,ESE,112,0.0,7.6,36,0.00,,,0.00,WUHU21623XXSP,2013-04-17 17:30:00,
2013-04-17 10:35:00,54.1,28.0,30.41,SW,225,5.1,7.6,37,0.00,,,0.00,WUHU21623XXSP,2013-04-17 17:35:00,
2013-04-17 10:40:00,55.2,28.3,30.41,North,0,3.6,5.1,36,0.00,,,0.00,WUHU21623XXSP,2013-04-17 17:40:00,
2013-04-17 10:45:00,54.5,28.4,30.41,NNE,22,0.0,3.6,37,0.00,,,0.00,WUHU21623XXSP,2013-04-17 17:45:00,
2013-04-17 10:50:00,54.1,28.7,30.41,South,180,8.3,8.3,38,0.00,,,0.00,WUHU21623XXSP,2013-04-17 17:50:00,
2013-04-17 10:55:00,53.6,26.9,30.41,SE,135,6.3,8.3,36,0.00,,,0.00,WUHU21623XXSP,2013-04-17 17:55:00,
2013-04-17 11:00:00,53.4,28.1,30.41,SE,135,0.0,8.3,38,0.00,,,0.00,WUHU21623XXSP,2013-04-17 18:00:00,
2013-04-17 11:05:00,54.7,28.6,30.41,NW,315,1.1,5.4,37,0.00,,,0.00,WUHU21623XXSP,2013-04-17 18:05:00,
2013-04-17 11:10:00,53.8,27.1,30.40,NE,45,0.0,5.4,36,0.00,,,0.00,WUHU21623XXSP,2013-04-17 18:10:00,
2013-04-17 11:15:00,53.4,28.1,30.40,North,0,0.0,0.0,38,0.00,,,0.00,WUHU21623XXSP,2013-04-17 18:15:00,
2013-04-17 11:20:00,54.1,28.7,30.40,SSW,202,3.6,3.6,38,0.00,,,0.00,WUHU21623XXSP,2013-04-17 18:20:00,
2013-04-17 11:25:00,55.4,29.2,30.40,SW,225,0.0,3.6,37,0.00,,,0.00,WUHU21623XXSP,2013-04-17 18:25:00,
2013-04-17 11:30:00,56.3,29.3,30.40,West,270,0.0,1.6,36,0.00,,,0.00,WUHU21623XXSP,2013-04-17 18:30:00,
2013-04-17 11:35:00,55.6,28.7,30.40,South,180,0.0,0.0,36,0.00,,,0.00,WUHU21623XXSP,2013-04-17 18:35:00,
2013-04-17 11:40:00,54.9,28.8,30.40,South,180,0.0,5.4,37,0.00,,,0.00,WUHU21623XXSP,2013-04-17 18:40:00,
2013-04-17 11:45:00,54.5,27.7,30.40,West,270,11.2,11.2,36,0.00,,,0.00,WUHU21623XXSP,2013-04-17 18:45:00,
2013-04-17 11:50:00,53.4,26.7,30.40,WNW,292,0.0,11.2,36,0.00,,,0.00,WUHU21623XXSP,2013-04-17 18:50:00,
2013-04-17 11:55:00,52.5,26.6,30.40,North,0,0.0,7.6,37,0.00,,,0.00,WUHU21623XXSP,2013-04-17 18:55:00,
2013-04-17 12:00:00,52.2,25.7,30.40,NW,315,6.9,6.9,36,0.00,,,0.00,WUHU21623XXSP,2013-04-17 19:00:00,
2013-04-17 12:05:00,51.6,26.5,30.40,West,270,0.0,6.9,38,0.00,,,0.00,WUHU21623XXSP,2013-04-17 19:05:00,
2013-04-17 12:10:00,51.8,26.7,30.39,SW,225,0.0,0.0,38,0.00,,,0.00,WUHU21623XXSP,2013-04-17 19:10:00,
2013-04-17 12:15:00,52.3,26.4,30.40,NNE,22,0.0,0.0,37,0.00,,,0.00,WUHU21623XXSP,2013-04-17 19:15:00,
2013-04-17 12:20:00,51.8,27.3,30.39,ENE,67,0.0,0.0,39,0.00,,,0.00,WUHU21623XXSP,2013-04-17 19:20:00,
2013-04-17 12:25:00,52.3,26.4,30.39,WNW,292,11.4,11.4,37,0.00,,,0.00,WUHU21623XXSP,2013-04-17 19:25:00,
2013-04-17 12:30:00,51.1,26.0,30.39,SW,225,8.5,11.4,38,0.00,,,0.00,WUHU21623XXSP,2013-04-17 19:30:00,
2013-04-17 12:35:00,51.4,27.6,30.39,WSW,247,0.0,11.4,40,0.00,,,0.00,WUHU21623XXSP,2013-04-17 19:35:00,
2013-04-17 12:40:00,52.0,28.1,30.39,ESE,112,0.0,0.0,40,0.00,,,0.00,WUHU21623XXSP,2013-04-17 19:40:00,
2013-04-17 12:45:00,52.3,27.7,30.38,West,270,0.0,0.0,39,0.00,,,0.00,WUHU21623XXSP,2013-04-17 19:45:00,
2013-04-17 12:50:00,52.0,26.8,30.38,WNW,292,10.3,12.1,38,0.00,,,0.00,WUHU21623XXSP,2013-04-17 19:50:00,
2013-04-17 12:55:00,50.7,26.3,30.38,WSW,247,8.3,12.1,39,0.00,,,0.00,WUHU21623XXSP,2013-04-17 19:55:00,
2013-04-17 13:00:00,50.7,25.7,30.38,WSW,247,8.3,8.3,38,0.00,,,0.00,WUHU21623XXSP,2013-04-17 20:00:00,
2013-04-17 13:05:00,50.7,25.7,30.38,NNW,337,0.0,8.3,38,0.00,,,0.00,WUHU21623XXSP,2013-04-17 20:05:00,
2013-04-17 13:10:00,51.6,27.1,30.38,SW,225,4.0,8.3,39,0.00,,,0.00,WUHU21623XXSP,2013-04-17 20:10:00,
2013-04-17 13:15:00,52.3,27.7,30.38,South,180,4.3,6.0,39,0.00,,,0.00,WUHU21623XXSP,2013-04-17 20:15:00,
2013-04-17 13:20:00,52.5,27.9,30.38,WNW,292,7.6,7.6,39,0.00,,,0.00,WUHU21623XXSP,2013-04-17 20:20:00,
2013-04-17 13:25:00,51.8,27.3,30.38,SW,225,5.1,7.6,39,0.00,,,0.00,WUHU21623XXSP,2013-04-17 20:25:00,
2013-04-17 13:30:00,52.2,27.7,30.37,SW,225,0.0,7.6,39,0.00,,,0.00,WUHU21623XXSP,2013-04-17 20:30:00,
2013-04-17 13:35:00,52.3,27.7,30.37,WSW,247,6.9,6.9,39,0.00,,,0.00,WUHU21623XXSP,2013-04-17 20:35:00,
2013-04-17 13:40:00,52.3,27.7,30.37,SSW,202,10.5,12.8,39,0.00,,,0.00,WUHU21623XXSP,2013-04-17 20:40:00,
2013-04-17 13:45:00,51.4,26.9,30.37,SSW,202,10.5,12.8,39,0.00,,,0.00,WUHU21623XXSP,2013-04-17 20:45:00,
2013-04-17 13:50:00,51.6,27.7,30.37,SSW,202,4.0,10.5,40,0.00,,,0.00,WUHU21623XXSP,2013-04-17 20:50:00,
2013-04-17 13:55:00,51.1,26.7,30.37,West,270,0.0,12.8,39,0.00,,,0.00,WUHU21623XXSP,2013-04-17 20:55:00,
2013-04-17 14:00:00,51.6,27.1,30.37,WSW,247,12.5,12.8,39,0.00,,,0.00,WUHU21623XXSP,2013-04-17 21:00:00,
2013-04-17 14:05:00,51.4,26.3,30.37,WSW,247,12.5,12.5,38,0.00,,,0.00,WUHU21623XXSP,2013-04-17 21:05:00,
2013-04-17 14:10:00,51.3,27.5,30.36,WNW,292,7.4,12.5,40,0.00,,,0.00,WUHU21623XXSP,2013-04-17 21:10:00,
2013-04-17 14:15:00,50.9,27.1,30.37,WNW,292,7.8,9.2,40,0.00,,,0.00,WUHU21623XXSP,2013-04-17 21:15:00,
2013-04-17 14:20:00,50.2,26.5,30.36,WNW,292,7.8,8.9,40,0.00,,,0.00,WUHU21623XXSP,2013-04-17 21:20:00,
2013-04-17 14:25:00,50.7,26.3,30.36,WSW,247,9.6,9.6,39,0.00,,,0.00,WUHU21623XXSP,2013-04-17 21:25:00,
2013-04-17 14:30:00,51.1,27.3,30.36,WSW,247,12.3,12.3,40,0.00,,,0.00,WUHU21623XXSP,2013-04-17 21:30:00,
2013-04-17 14:35:00,51.6,28.4,30.36,WSW,247,9.6,12.3,41,0.00,,,0.00,WUHU21623XXSP,2013-04-17 21:35:00,
2013-04-17 14:40:00,52.3,28.4,30.36,West,270,9.4,12.3,40,0.00,,,0.00,WUHU21623XXSP,2013-04-17 21:40:00,
2013-04-17 14:45:00,52.0,28.1,30.35,West,270,6.7,9.4,40,0.00,,,0.00,WUHU21623XXSP,2013-04-17 21:45:00,
2013-04-17 14:50:00,51.6,27.7,30.35,SSW,202,7.4,7.4,40,0.00,,,0.00,WUHU21623XXSP,2013-04-17 21:50:00,
2013-04-17 14:55:00,50.4,27.3,30.35,WNW,292,11.4,16.3,41,0.00,,,0.00,WUHU21623XXSP,2013-04-17 21:55:00,
2013-04-17 15:00:00,50.7,28.2,30.35,WSW,247,14.8,16.3,42,0.00,,,0.00,WUHU21623XXSP,2013-04-17 22:00:00,
2013-04-17 15:05:00,51.3,28.1,30.35,WSW,247,10.5,14.8,41,0.00,,,0.00,WUHU21623XXSP,2013-04-17 22:05:00,
2013-04-17 15:10:00,51.4,27.6,30.35,WSW,247,0.0,10.5,40,0.00,,,0.00,WUHU21623XXSP,2013-04-17 22:10:00,
2013-04-17 15:15:00,51.1,27.3,30.35,West,270,0.0,8.1,40,0.00,,,0.00,WUHU21623XXSP,2013-04-17 22:15:00,
2013-04-17 15:20:00,50.5,27.4,30.35,West,270,7.2,7.2,41,0.00,,,0.00,WUHU21623XXSP,2013-04-17 22:20:00,
2013-04-17 15:25:00,49.6,26.6,30.35,WSW,247,10.1,10.1,41,0.00,,,0.00,WUHU21623XXSP,2013-04-17 22:25:00,
2013-04-17 15:30:00,49.8,26.7,30.35,WNW,292,6.0,10.1,41,0.00,,,0.00,WUHU21623XXSP,2013-04-17 22:30:00,
2013-04-17 15:35:00,50.4,27.3,30.35,West,270,6.3,10.1,41,0.00,,,0.00,WUHU21623XXSP,2013-04-17 22:35:00,
2013-04-17 15:40:00,49.5,25.9,30.35,WNW,292,11.4,11.4,40,0.00,,,0.00,WUHU21623XXSP,2013-04-17 22:40:00,
2013-04-17 15:45:00,49.1,26.1,30.35,WNW,292,11.4,11.4,41,0.00,,,0.00,WUHU21623XXSP,2013-04-17 22:45:00,
2013-04-17 15:50:00,49.8,27.3,30.35,West,270,8.7,11.4,42,0.00,,,0.00,WUHU21623XXSP,2013-04-17 22:50:00,
2013-04-17 15:55:00,50.5,28.0,30.35,West,270,9.8,12.3,42,0.00,,,0.00,WUHU21623XXSP,2013-04-17 22:55:00,
2013-04-17 16:00:00,50.2,27.1,30.35,West,270,9.8,12.3,41,0.00,,,0.00,WUHU21623XXSP,2013-04-17 23:00:00,
2013-04-17 16:05:00,50.7,27.6,30.35,West,270,9.8,9.8,41,0.00,,,0.00,WUHU21623XXSP,2013-04-17 23:05:00,
2013-04-17 16:10:00,51.6,27.7,30.34,WSW,247,8.3,9.8,40,0.00,,,0.00,WUHU21623XXSP,2013-04-17 23:10:00,
2013-04-17 16:15:00,51.6,28.4,30.35,WSW,247,8.3,9.8,41,0.00,,,0.00,WUHU21623XXSP,2013-04-17 23:15:00,
2013-04-17 16:20:00,51.4,28.2,30.34,WSW,247,8.5,8.5,41,0.00,,,0.00,WUHU21623XXSP,2013-04-17 23:20:00,
2013-04-17 16:25:00,51.6,27.7,30.34,WSW,247,8.5,11.6,40,0.00,,,0.00,WUHU21623XXSP,2013-04-17 23:25:00,
2013-04-17 16:30:00,51.1,27.9,30.34,NW,315,8.5,11.6,41,0.00,,,0.00,WUHU21623XXSP,2013-04-17 23:30:00,
2013-04-17 16:35:00,50.2,27.7,30.34,West,270,5.6,8.5,42,0.00,,,0.00,WUHU21623XXSP,2013-04-17 23:35:00,
2013-04-17 16:40:00,49.3,26.9,30.34,WSW,247,0.0,10.7,42,0.00,,,0.00,WUHU21623XXSP,2013-04-17 23:40:00,
2013-04-17 16:45:00,49.8,27.3,30.34,WSW,247,0.0,10.7,42,0.00,,,0.00,WUHU21623XXSP,2013-04-17 23:45:00,
2013-04-17 16:50:00,50.2,27.7,30.34,West,270,14.1,14.1,42,0.00,,,0.00,WUHU21623XXSP,2013-04-17 23:50:00,
2013-04-17 16:55:00,49.6,27.8,30.34,WSW,247,7.4,14.1,43,0.00,,,0.00,WUHU21623XXSP,2013-04-17 23:55:00,
2013-04-17 17:00:00,50.2,28.3,30.34,WSW,247,7.4,7.4,43,0.00,,,0.00,WUHU21623XXSP,2013-04-18 00:00:00,
2013-04-17 17:05:00,50.9,28.3,30.33,WSW,247,0.0,11.6,42,0.00,,,0.00,WUHU21623XXSP,2013-04-18 00:05:00,
2013-04-17 17:10:00,51.4,28.8,30.34,WSW,247,7.2,13.2,42,0.00,,,0.00,WUHU21623XXSP,2013-04-18 00:10:00,
2013-04-17 17:15:00,52.0,29.3,30.33,WSW,247,6.9,13.2,42,0.00,,,0.00,WUHU21623XXSP,2013-04-18 00:15:00,
2013-04-17 17:20:00,51.6,29.0,30.33,WSW,247,4.5,6.9,42,0.00,,,0.00,WUHU21623XXSP,2013-04-18 00:20:00,
2013-04-17 17:25:00,51.4,28.8,30.33,WSW,247,12.5,12.5,42,0.00,,,0.00,WUHU21623XXSP,2013-04-18 00:25:00,
2013-04-17 17:30:00,51.4,28.8,30.33,WSW,247,12.5,12.5,42,0.00,,,0.00,WUHU21623XXSP,2013-04-18 00:30:00,
2013-04-17 17:35:00,51.4,28.8,30.33,WSW,247,8.7,12.5,42,0.00,,,0.00,WUHU21623XXSP,2013-04-18 00:35:00,
2013-04-17 17:40:00,51.4,28.8,30.33,WSW,247,7.8,8.7,42,0.00,,,0.00,WUHU21623XXSP,2013-04-18 00:40:00,
2013-04-17 17:45:00,51.3,28.7,30.33,WSW,247,8.1,8.7,42,0.00,,,0.00,WUHU21623XXSP,2013-04-18 00:45:00,
2013-04-17 17:50:00,51.4,29.4,30.33,WSW,247,2.9,8.1,43,0.00,,,0.00,WUHU21623XXSP,2013-04-18 00:50:00,
2013-04-17 17:55:00,51.6,29.0,30.33,WSW,247,10.5,10.5,42,0.00,,,0.00,WUHU21623XXSP,2013-04-18 00:55:00,
2013-04-17 18:00:00,51.4,28.8,30.33,WSW,247,2.9,10.5,42,0.00,,,0.00,WUHU21623XXSP,2013-04-18 01:00:00,
2013-04-17 18:05:00,51.6,29.6,30.33,WSW,247,6.9,6.9,43,0.00,,,0.00,WUHU21623XXSP,2013-04-18 01:05:00,
2013-04-17 18:10:00,51.6,29.0,30.33,West,270,6.5,6.9,42,0.00,,,0.00,WUHU21623XXSP,2013-04-18 01:10:00,
2013-04-17 18:15:00,51.6,29.0,30.33,WSW,247,0.0,6.5,42,0.00,,,0.00,WUHU21623XXSP,2013-04-18 01:15:00,
2013-04-17 18:16:00,51.8,29.2,30.33,WSW,247,0.0,6.5,42,0.00,,,0.00,WUHU21623XXSP,2013-04-18 01:16:00,
2013-04-17 18:20:00,51.6,29.6,30.33,WSW,247,0.0,6.5,43,0.00,,,0.00,WUHU21623XXSP,2013-04-18 01:20:00,
2013-04-17 18:25:00,51.4,28.8,30.33,West,270,0.0,7.4,42,0.00,,,0.00,WUHU21623XXSP,2013-04-18 01:25:00,
2013-04-17 18:30:00,51.4,28.8,30.32,WSW,247,0.0,7.4,42,0.00,,,0.00,WUHU21623XXSP,2013-04-18 01:30:00,
2013-04-17 18:35:00,51.6,29.0,30.32,WSW,247,6.9,6.9,42,0.00,,,0.00,WUHU21623XXSP,2013-04-18 01:35:00,
2013-04-17 18:40:00,52.3,29.6,30.32,SW,225,3.6,6.9,42,0.00,,,0.00,WUHU21623XXSP,2013-04-18 01:40:00,
2013-04-17 18:45:00,52.5,29.8,30.32,WSW,247,0.0,4.3,42,0.00,,,0.00,WUHU21623XXSP,2013-04-18 01:45:00,
2013-04-17 18:50:00,52.3,29.6,30.32,SW,225,11.2,11.2,42,0.00,,,0.00,WUHU21623XXSP,2013-04-18 01:50:00,
2013-04-17 18:55:00,51.8,29.2,30.32,SW,225,0.0,11.2,42,0.00,,,0.00,WUHU21623XXSP,2013-04-18 01:55:00,
2013-04-17 19:00:00,52.3,29.6,30.32,SW,225,7.4,7.4,42,0.00,,,0.00,WUHU21623XXSP,2013-04-18 02:00:00,
2013-04-17 19:05:00,52.3,29.0,30.32,WSW,247,0.0,7.4,41,0.00,,,0.00,WUHU21623XXSP,2013-04-18 02:05:00,
2013-04-17 19:10:00,52.5,29.8,30.32,SW,225,1.6,4.7,42,0.00,,,0.00,WUHU21623XXSP,2013-04-18 02:10:00,
2013-04-17 19:15:00,52.3,29.6,30.32,SSW,202,0.0,4.9,42,0.00,,,0.00,WUHU21623XXSP,2013-04-18 02:15:00,
2013-04-17 19:20:00,51.8,29.2,30.32,SSW,202,0.0,4.9,42,0.00,,,0.00,WUHU21623XXSP,2013-04-18 02:20:00,
2013-04-17 19:25:00,50.2,28.3,30.32,SW,225,0.0,0.0,43,0.00,,,0.00,WUHU21623XXSP,2013-04-18 02:25:00,
2013-04-17 19:30:00,48.7,26.9,30.32,SW,225,0.0,0.0,43,0.00,,,0.00,WUHU21623XXSP,2013-04-18 02:30:00,
2013-04-17 19:35:00,47.1,26.1,30.32,SW,225,0.0,0.0,44,0.00,,,0.00,WUHU21623XXSP,2013-04-18 02:35:00,
2013-04-17 19:40:00,45.3,25.5,30.32,SW,225,0.0,0.0,46,0.00,,,0.00,WUHU21623XXSP,2013-04-18 02:40:00,
2013-04-17 19:45:00,44.4,24.7,30.32,SW,225,0.0,0.2,46,0.00,,,0.00,WUHU21623XXSP,2013-04-18 02:45:00,
2013-04-17 19:50:00,43.5,24.4,30.32,SSW,202,0.0,0.2,47,0.00,,,0.00,WUHU21623XXSP,2013-04-18 02:50:00,
2013-04-17 19:55:00,42.1,23.6,30.32,SSW,202,0.0,0.0,48,0.00,,,0.00,WUHU21623XXSP,2013-04-18 02:55:00,
2013-04-17 20:00:00,41.5,23.6,30.32,SSW,202,0.0,0.0,49,0.00,,,0.00,WUHU21623XXSP,2013-04-18 03:00:00,
2013-04-17 20:05:00,40.8,23.4,30.32,SSW,202,0.0,0.0,50,0.00,,,0.00,WUHU21623XXSP,2013-04-18 03:05:00,
2013-04-17 20:10:00,40.5,23.7,30.32,SSW,202,0.0,0.0,51,0.00,,,0.00,WUHU21623XXSP,2013-04-18 03:10:00,
2013-04-17 20:15:00,40.1,23.3,30.32,SSW,202,0.0,0.0,51,0.00,,,0.00,WUHU21623XXSP,2013-04-18 03:15:00,
2013-04-17 20:20:00,39.9,23.1,30.32,SSW,202,0.0,0.0,51,0.00,,,0.00,WUHU21623XXSP,2013-04-18 03:20:00,
2013-04-17 20:25:00,39.6,23.3,30.33,SSW,202,0.0,0.0,52,0.00,,,0.00,WUHU21623XXSP,2013-04-18 03:25:00,
2013-04-17 20:30:00,39.4,23.1,30.33,SSW,202,0.0,0.0,52,0.00,,,0.00,WUHU21623XXSP,2013-04-18 03:30:00,
2013-04-17 20:35:00,39.0,23.2,30.32,SSW,202,0.0,0.0,53,0.00,,,0.00,WUHU21623XXSP,2013-04-18 03:35:00,
2013-04-17 20:40:00,38.8,23.5,30.33,SSW,202,6.9,6.9,54,0.00,,,0.00,WUHU21623XXSP,2013-04-18 03:40:00,
2013-04-17 20:45:00,38.8,23.5,30.33,SSW,202,0.0,6.9,54,0.00,,,0.00,WUHU21623XXSP,2013-04-18 03:45:00,
2013-04-17 20:50:00,38.5,23.2,30.32,SSW,202,2.2,6.9,54,0.00,,,0.00,WUHU21623XXSP,2013-04-18 03:50:00,
2013-04-17 20:55:00,38.3,23.5,30.33,SSW,202,0.0,3.4,55,0.00,,,0.00,WUHU21623XXSP,2013-04-18 03:55:00,
2013-04-17 21:00:00,38.3,23.5,30.33,SW,225,6.5,6.5,55,0.00,,,0.00,WUHU21623XXSP,2013-04-18 04:00:00,
2013-04-17 21:01:00,38.3,23.5,30.33,SW,225,6.5,6.5,55,0.00,,,0.00,WUHU21623XXSP,2013-04-18 04:01:00,
2013-04-17 21:02:00,38.3,23.5,30.33,SW,225,4.3,6.5,55,0.00,,,0.00,WUHU21623XXSP,2013-04-18 04:02:00,
2013-04-17 21:07:00,38.1,23.7,30.33,SSW,202,3.1,6.5,56,0.00,,,0.00,WUHU21623XXSP,2013-04-18 04:07:00,
2013-04-17 21:12:00,38.3,23.9,30.33,SW,225,3.8,6.5,56,0.00,,,0.00,WUHU21623XXSP,2013-04-18 04:12:00,
2013-04-17 21:17:00,38.3,23.9,30.33,SSW,202,0.0,5.6,56,0.00,,,0.00,WUHU21623XXSP,2013-04-18 04:17:00,
2013-04-17 21:22:00,38.1,23.7,30.33,SSW,202,0.0,5.6,56,0.00,,,0.00,WUHU21623XXSP,2013-04-18 04:22:00,
2013-04-17 21:27:00,38.1,23.7,30.33,SSW,202,0.0,0.0,56,0.00,,,0.00,WUHU21623XXSP,2013-04-18 04:27:00,
2013-04-17 21:32:00,37.9,24.0,30.33,SSW,202,4.9,5.6,57,0.00,,,0.00,WUHU21623XXSP,2013-04-18 04:32:00,
2013-04-17 21:37:00,37.9,24.0,30.33,SSW,202,1.6,5.6,57,0.00,,,0.00,WUHU21623XXSP,2013-04-18 04:37:00,
2013-04-17 21:42:00,37.9,24.0,30.33,South,180,3.8,4.9,57,0.00,,,0.00,WUHU21623XXSP,2013-04-18 04:42:00,
2013-04-17 21:47:00,37.9,24.4,30.33,SSW,202,4.3,4.9,58,0.00,,,0.00,WUHU21623XXSP,2013-04-18 04:47:00,
2013-04-17 21:52:00,37.8,24.3,30.33,South,180,5.4,5.4,58,0.00,,,0.00,WUHU21623XXSP,2013-04-18 04:52:00,
2013-04-17 21:57:00,37.8,24.3,30.33,South,180,2.5,5.4,58,0.00,,,0.00,WUHU21623XXSP,2013-04-18 04:57:00,
2013-04-17 22:02:00,37.8,24.3,30.33,SSW,202,0.0,5.4,58,0.00,,,0.00,WUHU21623XXSP,2013-04-18 05:02:00,
2013-04-17 22:07:00,37.4,23.9,30.33,SSW,202,1.3,1.3,58,0.00,,,0.00,WUHU21623XXSP,2013-04-18 05:07:00,
2013-04-17 22:12:00,37.2,24.2,30.33,SSW,202,0.7,1.3,59,0.00,,,0.00,WUHU21623XXSP,2013-04-18 05:12:00,
2013-04-17 22:17:00,37.2,24.2,30.33,SSW,202,5.6,5.6,59,0.00,,,0.00,WUHU21623XXSP,2013-04-18 05:17:00,
2013-04-17 22:22:00,37.2,24.2,30.33,SSW,202,2.9,5.6,59,0.00,,,0.00,WUHU21623XXSP,2013-04-18 05:22:00,
2013-04-17 22:27:00,37.2,24.2,30.33,SW,225,9.8,9.8,59,0.00,,,0.00,WUHU21623XXSP,2013-04-18 05:27:00,
2013-04-17 22:32:00,37.6,24.5,30.33,SSW,202,7.2,9.8,59,0.00,,,0.00,WUHU21623XXSP,2013-04-18 05:32:00,
2013-04-17 22:37:00,37.6,24.5,30.33,SW,225,6.3,7.8,59,0.00,,,0.00,WUHU21623XXSP,2013-04-18 05:37:00,
2013-04-17 22:42:00,37.8,24.7,30.33,South,180,6.9,7.8,59,0.00,,,0.00,WUHU21623XXSP,2013-04-18 05:42:00,
2013-04-17 22:47:00,37.9,24.8,30.33,SSW,202,2.7,6.9,59,0.00,,,0.00,WUHU21623XXSP,2013-04-18 05:47:00,
2013-04-17 22:52:00,37.8,24.7,30.33,South,180,8.5,8.5,59,0.00,,,0.00,WUHU21623XXSP,2013-04-18 05:52:00,
2013-04-17 22:57:00,37.6,24.5,30.33,South,180,8.5,8.5,59,0.00,,,0.00,WUHU21623XXSP,2013-04-18 05:57:00,
2013-04-17 23:02:00,37.2,24.2,30.33,South,180,2.9,8.5,59,0.00,,,0.00,WUHU21623XXSP,2013-04-18 06:02:00,
2013-04-17 23:07:00,37.0,24.0,30.33,South,180,6.5,6.5,59,0.00,,,0.00,WUHU21623XXSP,2013-04-18 06:07:00,
2013-04-17 23:12:00,36.3,23.7,30.33,SSW,202,6.5,6.5,60,0.00,,,0.00,WUHU21623XXSP,2013-04-18 06:12:00,
2013-04-17 23:17:00,36.1,23.9,30.33,SSW,202,6.5,6.5,61,0.00,,,0.00,WUHU21623XXSP,2013-04-18 06:17:00,
2013-04-17 23:22:00,36.0,23.8,30.33,SSW,202,7.8,7.8,61,0.00,,,0.00,WUHU21623XXSP,2013-04-18 06:22:00,
2013-04-17 23:27:00,36.0,23.8,30.33,SSW,202,5.6,7.8,61,0.00,,,0.00,WUHU21623XXSP,2013-04-18 06:27:00,
2013-04-17 23:32:00,36.1,23.9,30.32,SSW,202,4.0,7.8,61,0.00,,,0.00,WUHU21623XXSP,2013-04-18 06:32:00,
2013-04-17 23:37:00,36.1,23.9,30.32,SSW,202,7.8,8.7,61,0.00,,,0.00,WUHU21623XXSP,2013-04-18 06:37:00,
2013-04-17 23:42:00,36.3,24.1,30.32,SW,225,9.6,9.6,61,0.00,,,0.00,WUHU21623XXSP,2013-04-18 06:42:00,
2013-04-17 23:47:00,36.3,24.1,30.32,South,180,8.1,9.6,61,0.00,,,0.00,WUHU21623XXSP,2013-04-18 06:47:00,
2013-04-17 23:52:00,36.3,24.1,30.32,SSW,202,7.8,9.2,61,0.00,,,0.00,WUHU21623XXSP,2013-04-18 06:52:00,
2013-04-17 23:57:00,36.3,24.1,30.32,SSW,202,5.4,9.2,61,0.00,,,0.00,WUHU21623XXSP,2013-04-18 06:57:00,